www.pogodaiklimat.ru

Погода и климат >> Архив погоды >> Россия >> город Санкт-Петербург >> Ломоносов


ПОГОДА в Ломоносове

  • Прогноз погоды в Ломоносове
  • Монитор погоды в Ломоносове
  • Климат города

АРХИВ ПОГОДЫ в Ломоносове

Время (UTC), дата Ветер
(напр.,м/с)
 
Видим.   Явления Облачность Т
(С)
Тd
(С)
f
(%)
Тe
(С)
Тes
(С)
Комфортность P
(гПа)
Po
(гПа)
Тmin
(С)
Tmax
(С)
R
(мм)
R24
(мм)
S
(см)
00 8.12 ЮВ 5-10
{10}
20 км 10/0
[As op]
-1.4 -5.4 74 -8 -8 1005.1 1004.6
03 8.12 Ю 4
{10}
10 км слабый снег 10/0 300 м
[As op]
-1.9 -5.4 77 -8 -8 1003.0 1002.5 -2.1 0.2
06 8.12 Ю 5
{10}
20 км {снег} 10/10 300 м
[Sc]
-1.7 -5.1 78 -8 -8 1002.8 1002.3 -2.1 0.2 1
09 8.12 Ю 5
{10}
20 км 10/8 300 м
[Sc As trans]
-1.7 -4.1 84 -8 -8 1001.4 1000.9
12 8.12 Ю 6-11
{11}
20 км 10/8 300 м
[Sc As op]
-1.3 -5.3 74 -8 -8 1000.1 999.6
15 8.12 Ю 9-14
{14}
20 км 9/8 300 м
[Sc Ac trans]
-1.4 -5.4 74 -9 -9 998.3 997.8 0.0
18 8.12 Ю 5-12
{14}
20 км 10/10 300 м
[Sc]
-0.9 -4.1 79 -7 -7 998.1 997.6 -0.9
21 8.12 Ю 4-10
{12}
2000 м снег 10/0 300 м
[As op]
-1.5 -3.2 88 -7 -7 997.7 997.2
00 9.12 Ю 5-10
{10}
20 км позёмок {снег, метель} 10/4 300 м
[Sc Ac As]
-1.3 -3.6 84 -8 -8 997.3 996.8
03 9.12 Ю 3
{11}
20 км {метель} 10/10 300 м
[Sc]
-1.4 -3.1 88 -6 -6 997.7 997.2 -1.8 2
06 9.12 Ю 3 20 км {метель} 10/10 600 м
[Sc]
-1.5 -3.2 88 -7 -7 998.2 997.7 -1.8 2 2
09 9.12 Ю 4
{10}
10 км 9/9 300 м
[Cb calv]
-1.2 -2.8 89 -7 -7 998.4 997.9
12 9.12 Ю 5-10
{11}
10 км 10/10 300 м
[Sc]
-0.5 -2.9 84 -7 -7 998.0 997.5
15 9.12 Ю 3
{10}
20 км 9/9 300 м
[Sc]
-0.6 -3.1 83 -5 -5 998.2 997.7
18 9.12 Ю 5
{11}
20 км 6/3 300 м
[Sc Ac trans]
-0.7 -3.5 81 -7 -7 997.7 997.2 -0.4
21 9.12 Ю 3
{10}
10 км 10/10 600 м
[Sc]
-0.2 -2.2 86 -5 -5 998.4 997.9
00 10.12 ЮВ 3 20 км 10/0
[Ac As]
-0.5 -2.9 84 -5 -5 998.6 998.1
03 10.12 ЮВ 3 10 км 10/6 300 м
[Sc Ac As]
-0.5 -2.6 86 -5 -5 998.3 997.8 -0.7
06 10.12 ЮВ 3 10 км 10/0
[Ac As]
-0.8 -2.4 89 -6 -6 998.7 998.2 -1.0 2
09 10.12 ЮВ 3 10 км 10/3 600 м
[Sc Ac As]
-0.9 -2.2 91 -6 -6 999.4 998.9
12 10.12 ЮВ 4 10 км 10/0
[Ac As]
-1.0 -2.3 91 -7 -7 1000.4 999.9
15 10.12 ЮВ 4 10 км 10/1 300 м
[Sc Ac As]
-1.2 -2.8 89 -7 -7 1001.7 1001.2
18 10.12 ЮВ 3 4000 м слабый снег 10/0
[As op]
-0.9 -2.2 91 -6 -6 1003.2 1002.7 -0.8 0.0
21 10.12 В 4 2000 м снег 10/0 300 м
[As op]
-1.5 -2.3 94 -7 -7 1004.8 1004.3
00 11.12 В 4 4000 м слабый снег 10/0 300 м
[As op]
-1.6 -2.4 94 -8 -8 1006.3 1005.8
03 11.12 В 2 2000 м снег 10/0 300 м
[As op]
-1.6 -2.1 96 -6 -6 1007.6 1007.1 -2.0 2
06 11.12 штиль 0 2000 м снег 10/0 300 м
[As op]
-1.5 -2.0 96 -3 -3 1009.7 1009.2 -2.0 4 10
09 11.12 СВ 2 2000 м снег 10/0 300 м
[As op]
-1.2 -1.6 97 -5 -5 1011.5 1011.0
12 11.12 штиль 0 1000 м слабый снег 10/0 200 м
[As op]
-0.3 -0.9 96 -2 -2 1013.4 1012.9
15 11.12 СВ 2 10 км {снег} 10/10 300 м
[Sc]
+0.3 -0.8 92 -3 -3 1015.2 1014.7 3
18 11.12 СВ 2 20 км {снег} 10/10 300 м
[Sc]
0.0 -0.8 94 -4 -4 1016.8 1016.3 +0.5 0.9
21 11.12 СВ 1 10 км 10/10 300 м
[Sc]
-1.0 -2.3 91 -3 -3 1019.0 1018.5
00 12.12 СЗ 2 10 км 10/10 300 м
[Sc]
-1.2 -2.5 91 -5 -5 1020.1 1019.6
03 12.12 СЗ 2 10 км 10/10 300 м
[Sc]
-1.1 -2.7 89 -5 -5 1021.6 1021.1 -1.4
06 12.12 С 5 20 км 10/10 300 м
[Sc]
-1.7 -3.4 88 -8 -8 1023.5 1023.0 -1.9 10
09 12.12 С 3 4000 м дымка 10/10 300 м
[St]
-2.8 -4.1 91 -8 -8 1024.8 1024.3
12 12.12 С 3 2000 м снежные зёрна 10/10 300 м
[St]
-3.2 -3.9 95 -9 -9 1026.1 1025.6
15 12.12 С 1 20 км {снег} 10/10 300 м
[Sc]
-2.3 -4.8 83 -4 -4 1026.9 1026.4 0.3
18 12.12 С 2 10 км {снег} 10/10 300 м
[Sc]
-1.9 -3.4 89 -6 -6 1027.8 1027.3 -1.4 0.3
21 12.12 С 3 10 км слабый ливневой снег 10/10 300 м
[Cb calv]
-1.4 -3.1 88 -6 -6 1028.6 1028.1
00 13.12 СВ 4 10 км {ливн. осадки} 10/10 300 м
[Sc]
-0.3 -1.2 94 -6 -6 1029.7 1029.2
03 13.12 СВ 4 20 км 10/10 300 м
[Sc]
0.0 -1.4 90 -6 -6 1030.2 1029.7 -1.9 0.0
06 13.12 В 4 20 км 10/10 300 м
[Sc]
+0.1 -1.6 88 -5 -5 1030.7 1030.2 -1.9 0.0 9
09 13.12 СВ 4 10 км 10/10 300 м
[Cb calv]
-0.4 -1.0 96 -6 -6 1031.8 1031.3
12 13.12 В 5
{10}
20 км 10/6 300 м
[Cb calv Ac As]
-1.4 -4.7 78 -8 -8 1032.2 1031.7
15 13.12 В 5
{10}
20 км 10/8 300 м
[Cb calv Ac As]
-1.6 -4.0 84 -8 -8 1032.6 1032.1
18 13.12 В 4 20 км 10/10 300 м
[Sc]
-2.0 -4.5 83 -8 -8 1032.9 1032.4 +0.1
21 13.12 В 4 20 км 10/6 300 м
[Cb calv Ac As]
-2.1 -4.9 81 -8 -8 1033.1 1032.6
00 14.12 В 4 20 км 10/10 300 м
[Sc]
-2.4 -5.0 82 -8 -8 1033.8 1033.3
03 14.12 В 2 20 км 10/8 300 м
[Sc Ac As]
-2.6 -5.2 82 -7 -7 1033.4 1032.9 -2.8
06 14.12 В 1 20 км 10/10 300 м
[St]
-2.5 -4.4 87 -5 -5 1033.7 1033.2 -2.8 9
09 14.12 СВ 2 10 км 10/10 300 м
[St]
-2.2 -4.4 85 -6 -6 1034.3 1033.8
12 14.12 В 2 10 км 10/10 300 м
[St]
-2.4 -4.6 85 -6 -6 1034.5 1034.0
15 14.12 В 2 20 км 10/10 300 м
[St]
-3.0 -5.4 83 -7 -7 1034.8 1034.3
18 14.12 СВ 2 20 км 10/10 300 м
[St]
-3.3 -5.7 83 -7 -7 1035.5 1035.0 -2.2
21 14.12 В 1 20 км 10/10 300 м
[St]
-3.3 -5.7 83 -6 -6 1035.8 1035.3

 

Местоположение метеостанции Ломоносов (город Санкт-Петербург, Россия): широта 59.92 долгота 29.78 высота над уровнем моря 4 м.

В архиве по умолчанию представлена погода в Ломоносове за последнюю неделю. Архивные данные за месяц целиком и за предыдущие месяцы, начиная с января 2011 года, Вы можете получить, выбрав интересующий диапазон дат из раскрывающегося списка и нажав кнопку "Ввод!".


*Определитесь, кто Вы:
робот инопланетянин человек

Внимание! Время в таблицах - всемирное. Для получения местного времени необходимо прибавить поправку, которая в Ломоносове равна 3 ч.

Смотрите также архив погоды в соседних городах и на ближайших метеорологических станциях:

Погода в Кронштадте (город Санкт-Петербург, Россия) (7 км)
Погода в Лисьем Носу (город Санкт-Петербург, Россия) (16 км)
Погода в Шепелево (Ленинградская область, Россия) (29 км)
Погода в Санкт-Петербурге (город Санкт-Петербург, Россия) (29 км)
Погода в Сосновом Бору (Ленинградская область, Россия) (36 км)
Погода в Рощино (Ленинградская область, Россия) (38 км)
Погода в Воейково (город Санкт-Петербург, Россия) (51 км)
Погода в Озерках (Ленинградская область, Россия) (53 км)
Погода в Волосово (Ленинградская область, Россия) (57 км)
Погода в Белогорке (Ленинградская область, Россия) (66 км)

Пояснения к столбцам:

Ветер - указаны скорость ветра в м/с - средняя за 10 мин, порывы в срок и между сроками (в фигурных скобках) и направление, откуда дует ветер: С - северный, СВ - северо-восточный, В - восточный, ЮВ - юго-восточный, Ю - южный, ЮЗ - юго-западный, З - западный, СЗ - северо-западный.
Видимость - горизонтальная дальность видимости в метрах или километрах. При видимости от 1 до 10 км при отсутствии осадков обычно наблюдается дымка, при ухудшении видимости до 1 км и менее - туман. В сухую погоду видимость может ухудшаться дымом, пылью или мглою.
Явления - указаны атмосферные явления, наблюдавшиеся в срок или в последний час перед сроком; фигурными скобками обозначены явления, наблюдавшиеся между сроками (за 1-3 часа до срока); квадратными скобками обозначены град или гололедные отложения с указанием их диаметра в мм.
Облачность - указаны через наклонную черту общая и нижняя облачность в баллах и высота нижней границы облаков в метрах; квадратными скобками обозначены формы облаков: Ci - перистые, Cs - перисто-слоистые, Cc - перисто-кучевые, Ac - высококучевые, As - высокослоистые, Sc - слоисто-кучевые, Ns - слоисто-дождевые, Cu - кучевые, Cb - кучево-дождевые. Подробнее классификацию облаков см. в Атласе облаков (PDF).
T - Температура воздуха - температура, измеренная на высоте 2 м над землей.
Td - Температура точки росы - температура, при понижении до которой содержащийся в воздухе водяной пар достигнет насыщения.
f - Относительная влажность воздуха - влажноcть воздуха, измеренная на высоте 2 м над землей.
Te - Эффективная температура - температура, которую ощущает одетый по сезону человек в тени. Характеристика душности погоды. При расчете учитывается влияние влажности воздуха и скорости ветра на теплоощущения человека.
Tes - Эффективная температура на солнце - температура, которую ощущает человек, с поправкой на солнечный нагрев. Характеристика знойности погоды. Зависит от высоты солнца над горизонтом, облачности и скорости ветра. Ночью, в пасмурную погоду, а также при ветре 12 м/с и более поправка равна нулю.
P - Атмосферное давление - приведенное к уровню моря атмосферное давление.
Po - Атмосферное давление - измеренное на уровне метеостанции атмосферное давление.
Tmin - Минимальная температура - минимум температуры воздуха на высоте 2 м над землей.
Tmax - Максимальная температура - максимум температуры воздуха на высоте 2 м над землей.
R - Количество осадков - Количество выпавших осадков за период времени, мм. При наведении курсора мыши на число - период времени, за который выпало указанное количество осадков.
R24 - Количество осадков - Количество выпавших осадков за 24 часа, мм.
S - Снежный покров - Высота снежного покрова, см. При наведении курсора мыши на число - состояние снежного покрова и степень покрытия местности в баллах.